TimeEST,TemperatureF,Dew PointF,Humidity,Sea Level PressureIn,VisibilityMPH,Wind Direction,Wind SpeedMPH,Gust SpeedMPH,PrecipitationIn,Events,Conditions,WindDirDegrees,DateUTC
12:53 AM,21.9,10.9,63,30.22,10.0,South,6.9,-,N/A,,Clear,170,2013-02-18 05:53:00
1:53 AM,21.9,10.9,63,30.22,10.0,South,5.8,-,N/A,,Clear,170,2013-02-18 06:53:00
2:53 AM,21.9,10.9,63,30.21,10.0,SSE,4.6,-,N/A,,Clear,160,2013-02-18 07:53:00
3:53 AM,21.9,10.9,63,30.18,10.0,SSE,5.8,-,N/A,,Clear,160,2013-02-18 08:53:00
4:53 AM,21.9,10.0,60,30.16,10.0,SSE,4.6,-,N/A,,Mostly Cloudy,150,2013-02-18 09:53:00
5:53 AM,21.9,10.9,63,30.14,10.0,SSE,6.9,-,N/A,,Mostly Cloudy,150,2013-02-18 10:53:00
6:53 AM,23.0,10.9,60,30.10,10.0,SE,8.1,-,N/A,,Clear,140,2013-02-18 11:53:00
7:53 AM,24.1,12.0,60,30.07,10.0,SE,9.2,-,N/A,,Clear,140,2013-02-18 12:53:00
8:53 AM,28.0,12.9,53,30.05,10.0,SSE,8.1,-,N/A,,Clear,150,2013-02-18 13:53:00
9:53 AM,33.1,16.0,50,30.02,10.0,South,19.6,26.5,N/A,,Clear,170,2013-02-18 14:53:00
10:53 AM,36.0,19.0,50,29.99,10.0,South,11.5,21.9,N/A,,Clear,170,2013-02-18 15:53:00
11:53 AM,39.9,21.9,49,29.97,10.0,South,13.8,24.2,N/A,,Clear,180,2013-02-18 16:53:00
12:53 PM,44.1,26.1,49,29.91,10.0,South,12.7,20.7,N/A,,Clear,180,2013-02-18 17:53:00
1:53 PM,48.0,30.0,50,29.88,10.0,South,10.4,-,N/A,,Clear,180,2013-02-18 18:53:00
2:53 PM,52.0,33.1,49,29.85,10.0,South,19.6,26.5,N/A,,Clear,190,2013-02-18 19:53:00
3:53 PM,52.0,35.1,53,29.82,10.0,South,12.7,19.6,N/A,,Mostly Cloudy,190,2013-02-18 20:53:00
4:53 PM,51.1,35.1,54,29.79,10.0,South,9.2,-,N/A,,Overcast,180,2013-02-18 21:53:00
5:53 PM,51.1,36.0,56,29.77,10.0,South,11.5,19.6,N/A,,Overcast,180,2013-02-18 22:53:00
6:53 PM,51.1,34.0,52,29.76,10.0,South,10.4,-,N/A,,Overcast,180,2013-02-18 23:53:00
7:53 PM,50.0,33.1,52,29.74,10.0,South,11.5,19.6,N/A,,Overcast,190,2013-02-19 00:53:00
8:53 PM,48.0,33.1,56,29.72,10.0,South,13.8,20.7,0.00,,Overcast,190,2013-02-19 01:53:00
9:53 PM,48.0,35.1,61,29.67,10.0,South,13.8,19.6,N/A,,Overcast,190,2013-02-19 02:53:00
10:53 PM,48.0,35.1,61,29.65,10.0,South,15.0,23.0,N/A,,Overcast,190,2013-02-19 03:53:00
11:53 PM,46.0,39.9,79,29.62,8.0,SSW,19.6,28.8,0.04,Rain,Light Rain,200,2013-02-19 04:53:00